Simultaneous Nadir Overpasses (SNOs) Predictions

Prediction of SNOs between TERRA and METOP-C Satellite Orbit:

Table of predicted SNOs for the next 14.0 days since TLE Epoch: 10/21/2023
Index Date (TERRA) Time (TERRA) Lat,Lon (TERRA) SZA (TERRA ) Date (METOP-C) Time (METOP-C) Lat,Lon (METOP-C) SZA (METOP-C ) Distance(km) Time Diff (sec)
1 10/22/2023 00:21:38 -80.36, 20.83 87.54 10/22/2023 00:21:11 -80.36, 20.92 87.54 1.59 27
2 10/22/2023 01:10:56 80.45,-170.61 92.64 10/22/2023 01:11:47 80.46,-170.53 92.67 1.47 51
3 10/24/2023 15:42:45 80.32, -29.87 93.33 10/24/2023 15:42:11 80.31, -30.01 93.30 2.76 34
4 10/24/2023 16:32:05 -80.42, 138.72 86.50 10/24/2023 16:32:49 -80.41, 138.60 86.50 2.37 44
5 10/27/2023 07:03:53 -80.29, -80.44 85.82 10/27/2023 07:03:12 -80.28, -80.56 85.85 2.55 41
6 10/27/2023 07:53:11 80.38, 88.04 94.34 10/27/2023 07:53:48 80.37, 87.87 94.34 3.18 37
7 10/29/2023 22:24:56 80.28,-130.77 95.06 10/29/2023 22:24:08 80.28,-130.76 95.05 0.07 48
8 10/29/2023 23:14:16 -80.39, 37.86 84.76 10/29/2023 23:14:46 -80.39, 37.91 84.74 1.04 30
9 11/01/2023 13:46:02 -80.27, 178.84 84.11 11/01/2023 13:45:08 -80.28, 178.92 84.11 1.65 54



Historial Predications of SNOs between TERRA and METOP-C
